Time,TemperatureF,DewpointF,PressureIn,WindDirection,WindDirectionDegrees,WindSpeedMPH,WindSpeedGustMPH,Humidity,HourlyPrecipIn,Conditions,Clouds,dailyrainin,SolarRadiationWatts/m^2,SoftwareType,DateUTC
2013-04-09 00:00:00,49.3,41.0,29.92,SSW,195,0.0,-999.0,73,0.00,,,0.00,0,Wunderground v.1.15,2013-04-09 04:00:00,
2013-04-09 00:01:00,49.3,41.0,29.92,SSW,195,0.0,-999.0,73,0.00,,,0.00,0,Wunderground v.1.15,2013-04-09 04:01:00,
2013-04-09 00:02:00,49.4,41.1,29.92,SSW,195,0.0,-999.0,73,0.00,,,0.00,0,Wunderground v.1.15,2013-04-09 04:02:00,
2013-04-09 00:04:00,49.4,41.5,29.92,SSW,195,0.0,-999.0,74,0.00,,,0.00,0,Wunderground v.1.15,2013-04-09 04:04:00,
2013-04-09 00:10:00,49.4,41.5,29.91,SSW,195,0.0,-999.0,74,0.00,,,0.00,0,Wunderground v.1.15,2013-04-09 04:10:00,
2013-04-09 00:17:00,49.5,41.6,29.92,SSW,195,0.0,-999.0,74,0.00,,,0.00,0,Wunderground v.1.15,2013-04-09 04:17:00,
2013-04-09 00:23:00,49.5,41.6,29.91,SSW,195,0.0,-999.0,74,0.00,,,0.00,0,Wunderground v.1.15,2013-04-09 04:23:00,
2013-04-09 00:28:00,49.6,42.0,29.92,SSW,195,0.0,-999.0,75,0.00,,,0.00,0,Wunderground v.1.15,2013-04-09 04:28:00,
2013-04-09 00:34:00,49.6,42.0,29.91,SSW,195,0.0,-999.0,75,0.00,,,0.00,0,Wunderground v.1.15,2013-04-09 04:34:00,
2013-04-09 00:40:00,49.6,42.0,29.91,SSW,195,0.0,-999.0,75,0.00,,,0.00,0,Wunderground v.1.15,2013-04-09 04:40:00,
2013-04-09 00:45:00,49.6,42.3,29.91,SSW,195,0.0,-999.0,76,0.00,,,0.00,0,Wunderground v.1.15,2013-04-09 04:45:00,
2013-04-09 00:51:00,49.6,42.3,29.91,SSW,195,1.0,-999.0,76,0.00,,,0.00,0,Wunderground v.1.15,2013-04-09 04:51:00,
2013-04-09 00:57:00,49.5,42.6,29.90,SSW,195,0.0,-999.0,77,0.00,,,0.00,0,Wunderground v.1.15,2013-04-09 04:57:00,
2013-04-09 01:03:00,49.5,42.6,29.90,SSW,195,0.0,-999.0,77,0.00,,,0.00,0,Wunderground v.1.15,2013-04-09 05:03:00,
2013-04-09 01:09:00,49.4,42.8,29.90,SSW,195,0.0,-999.0,78,0.00,,,0.00,0,Wunderground v.1.15,2013-04-09 05:09:00,
2013-04-09 01:15:00,49.3,42.7,29.90,SSW,195,0.0,-999.0,78,0.00,,,0.00,0,Wunderground v.1.15,2013-04-09 05:15:00,
2013-04-09 01:22:00,49.2,42.6,29.89,SSW,195,0.0,-999.0,78,0.00,,,0.00,0,Wunderground v.1.15,2013-04-09 05:22:00,
2013-04-09 01:28:00,49.2,43.0,29.89,SSW,195,0.0,-999.0,79,0.00,,,0.00,0,Wunderground v.1.15,2013-04-09 05:28:00,
2013-04-09 01:33:00,49.2,43.0,29.89,SSW,195,1.0,-999.0,79,0.00,,,0.00,0,Wunderground v.1.15,2013-04-09 05:33:00,
2013-04-09 01:40:00,49.1,43.2,29.88,SSW,195,0.0,-999.0,80,0.00,,,0.00,0,Wunderground v.1.15,2013-04-09 05:40:00,
2013-04-09 01:45:00,49.0,43.4,29.88,SSW,195,0.0,-999.0,81,0.00,,,0.00,0,Wunderground v.1.15,2013-04-09 05:45:00,
2013-04-09 01:51:00,49.0,43.4,29.87,SSW,195,0.0,-999.0,81,0.00,,,0.00,0,Wunderground v.1.15,2013-04-09 05:51:00,
2013-04-09 01:56:00,48.9,43.3,29.87,SSW,195,0.0,-999.0,81,0.00,,,0.00,0,Wunderground v.1.15,2013-04-09 05:56:00,
2013-04-09 02:01:00,48.8,43.5,29.87,SSW,195,1.0,-999.0,82,0.00,,,0.00,0,Wunderground v.1.15,2013-04-09 06:01:00,
2013-04-09 02:06:00,48.7,43.5,29.88,SSW,195,4.0,-999.0,82,0.00,,,0.00,0,Wunderground v.1.15,2013-04-09 06:06:00,
2013-04-09 02:11:00,48.6,44.0,29.87,SSW,195,0.0,-999.0,84,0.00,,,0.01,0,Wunderground v.1.15,2013-04-09 06:11:00,
2013-04-09 02:16:00,48.5,44.2,29.86,SSW,195,4.0,-999.0,85,0.00,,,0.01,0,Wunderground v.1.15,2013-04-09 06:16:00,
2013-04-09 02:21:00,48.3,44.3,29.86,SSW,195,0.0,-999.0,86,0.00,,,0.01,0,Wunderground v.1.15,2013-04-09 06:21:00,
2013-04-09 02:26:00,48.1,44.4,29.85,SSW,195,0.0,-999.0,87,0.00,,,0.01,0,Wunderground v.1.15,2013-04-09 06:26:00,
2013-04-09 02:32:00,48.1,44.4,29.85,SSW,195,0.0,-999.0,87,0.00,,,0.01,0,Wunderground v.1.15,2013-04-09 06:32:00,
2013-04-09 02:37:00,48.0,44.6,29.84,SSW,195,0.0,-999.0,88,0.00,,,0.01,0,Wunderground v.1.15,2013-04-09 06:37:00,
2013-04-09 02:42:00,47.9,44.5,29.84,SSW,195,2.0,-999.0,88,0.00,,,0.01,0,Wunderground v.1.15,2013-04-09 06:42:00,
2013-04-09 02:47:00,47.7,44.6,29.85,SSW,195,6.0,-999.0,89,0.00,,,0.01,0,Wunderground v.1.15,2013-04-09 06:47:00,
2013-04-09 02:52:00,47.4,44.3,29.86,SSW,205,1.0,-999.0,89,0.00,,,0.01,0,Wunderground v.1.15,2013-04-09 06:52:00,
2013-04-09 02:57:00,47.2,44.4,29.85,SSW,204,0.0,-999.0,90,0.00,,,0.02,0,Wunderground v.1.15,2013-04-09 06:57:00,
2013-04-09 03:02:00,47.3,44.8,29.86,SSW,204,3.0,-999.0,91,0.00,,,0.02,0,Wunderground v.1.15,2013-04-09 07:02:00,
2013-04-09 03:07:00,47.2,44.7,29.84,SSW,204,2.0,-999.0,91,0.00,,,0.02,0,Wunderground v.1.15,2013-04-09 07:07:00,
2013-04-09 03:12:00,47.2,44.7,29.84,SSW,204,4.0,-999.0,91,0.00,,,0.02,0,Wunderground v.1.15,2013-04-09 07:12:00,
2013-04-09 03:17:00,47.1,44.6,29.84,SSW,204,4.0,-999.0,91,0.00,,,0.02,0,Wunderground v.1.15,2013-04-09 07:17:00,
2013-04-09 03:22:00,47.1,44.9,29.84,SSW,204,3.0,-999.0,92,0.00,,,0.02,0,Wunderground v.1.15,2013-04-09 07:22:00,
2013-04-09 03:27:00,47.0,44.8,29.84,SSW,204,0.0,-999.0,92,0.00,,,0.02,0,Wunderground v.1.15,2013-04-09 07:27:00,
2013-04-09 03:32:00,47.0,44.8,29.83,SSW,204,0.0,-999.0,92,0.00,,,0.02,0,Wunderground v.1.15,2013-04-09 07:32:00,
2013-04-09 03:37:00,46.9,44.7,29.84,SSW,204,0.0,-999.0,92,0.00,,,0.02,0,Wunderground v.1.15,2013-04-09 07:37:00,
2013-04-09 03:42:00,46.8,44.6,29.83,SSW,204,0.0,-999.0,92,0.00,,,0.02,0,Wunderground v.1.15,2013-04-09 07:42:00,
2013-04-09 03:47:00,46.7,44.5,29.83,SSW,204,0.0,-999.0,92,0.00,,,0.02,0,Wunderground v.1.15,2013-04-09 07:47:00,
2013-04-09 03:52:00,46.5,44.3,29.83,SSW,204,0.0,-999.0,92,0.00,,,0.02,0,Wunderground v.1.15,2013-04-09 07:52:00,
2013-04-09 03:57:00,46.4,44.2,29.83,SSW,204,0.0,-999.0,92,0.00,,,0.02,0,Wunderground v.1.15,2013-04-09 07:57:00,
2013-04-09 04:02:00,46.2,44.0,29.83,SSW,204,0.0,-999.0,92,0.00,,,0.02,0,Wunderground v.1.15,2013-04-09 08:02:00,
2013-04-09 04:07:00,46.0,43.8,29.83,SSW,204,0.0,-999.0,92,0.00,,,0.02,0,Wunderground v.1.15,2013-04-09 08:07:00,
2013-04-09 04:12:00,45.9,43.7,29.83,SSW,204,3.0,-999.0,92,0.00,,,0.02,0,Wunderground v.1.15,2013-04-09 08:12:00,
2013-04-09 04:18:00,45.7,43.5,29.82,SSW,204,0.0,-999.0,92,0.00,,,0.02,0,Wunderground v.1.15,2013-04-09 08:18:00,
2013-04-09 04:23:00,45.6,43.4,29.82,SSW,204,0.0,-999.0,92,0.00,,,0.02,0,Wunderground v.1.15,2013-04-09 08:23:00,
2013-04-09 04:28:00,45.4,43.2,29.82,SSW,204,1.0,-999.0,92,0.00,,,0.02,0,Wunderground v.1.15,2013-04-09 08:28:00,
2013-04-09 04:33:00,45.2,43.3,29.82,SSW,204,0.0,-999.0,93,0.00,,,0.02,0,Wunderground v.1.15,2013-04-09 08:33:00,
2013-04-09 04:38:00,45.1,42.9,29.83,SSW,204,1.0,-999.0,92,0.00,,,0.02,0,Wunderground v.1.15,2013-04-09 08:38:00,
2013-04-09 04:43:00,44.9,43.0,29.83,SSW,204,0.0,-999.0,93,0.00,,,0.02,0,Wunderground v.1.15,2013-04-09 08:43:00,
2013-04-09 04:48:00,44.7,42.8,29.82,SSW,204,0.0,-999.0,93,0.00,,,0.02,0,Wunderground v.1.15,2013-04-09 08:48:00,
2013-04-09 04:53:00,44.6,42.7,29.82,SSW,204,0.0,-999.0,93,0.00,,,0.02,0,Wunderground v.1.15,2013-04-09 08:53:00,
2013-04-09 04:58:00,44.4,42.5,29.82,SSW,204,2.0,-999.0,93,0.00,,,0.02,0,Wunderground v.1.15,2013-04-09 08:58:00,
2013-04-09 05:03:00,44.3,42.4,29.82,SSW,204,0.0,-999.0,93,0.00,,,0.02,0,Wunderground v.1.15,2013-04-09 09:03:00,
2013-04-09 05:08:00,44.2,42.3,29.82,SSW,204,2.0,-999.0,93,0.00,,,0.02,0,Wunderground v.1.15,2013-04-09 09:08:00,
2013-04-09 05:13:00,44.3,42.4,29.82,SSW,204,0.0,-999.0,93,0.00,,,0.02,0,Wunderground v.1.15,2013-04-09 09:13:00,
2013-04-09 05:18:00,44.3,42.7,29.81,SSW,204,0.0,-999.0,94,0.00,,,0.02,0,Wunderground v.1.15,2013-04-09 09:18:00,
2013-04-09 05:23:00,44.3,42.7,29.81,SSW,203,0.0,-999.0,94,0.00,,,0.02,0,Wunderground v.1.15,2013-04-09 09:23:00,
2013-04-09 05:28:00,44.3,42.7,29.81,SSW,203,0.0,-999.0,94,0.00,,,0.02,0,Wunderground v.1.15,2013-04-09 09:28:00,
2013-04-09 05:33:00,44.3,42.7,29.81,SSW,203,3.0,-999.0,94,0.00,,,0.02,0,Wunderground v.1.15,2013-04-09 09:33:00,
2013-04-09 05:39:00,44.6,43.3,29.82,South,173,5.0,-999.0,95,0.00,,,0.02,0,Wunderground v.1.15,2013-04-09 09:39:00,
2013-04-09 05:44:00,44.8,43.5,29.81,South,173,0.0,-999.0,95,0.00,,,0.02,0,Wunderground v.1.15,2013-04-09 09:44:00,
2013-04-09 05:49:00,44.9,43.6,29.81,South,173,4.0,-999.0,95,0.00,,,0.02,0,Wunderground v.1.15,2013-04-09 09:49:00,
2013-04-09 05:54:00,44.9,43.6,29.80,SSE,167,0.0,-999.0,95,0.00,,,0.02,0,Wunderground v.1.15,2013-04-09 09:54:00,
2013-04-09 05:59:00,45.0,43.7,29.80,South,169,0.0,-999.0,95,0.00,,,0.02,0,Wunderground v.1.15,2013-04-09 09:59:00,
2013-04-09 06:04:00,45.0,43.7,29.80,SSW,213,5.0,-999.0,95,0.00,,,0.02,0,Wunderground v.1.15,2013-04-09 10:04:00,
2013-04-09 06:10:00,45.0,43.7,29.81,SW,215,6.0,-999.0,95,0.00,,,0.02,0,Wunderground v.1.15,2013-04-09 10:10:00,
2013-04-09 06:14:00,45.6,44.5,29.79,SSE,149,5.0,-999.0,96,0.00,,,0.02,0,Wunderground v.1.15,2013-04-09 10:14:00,
2013-04-09 06:20:00,46.7,45.6,29.80,SSE,148,6.0,-999.0,96,0.00,,,0.02,0,Wunderground v.1.15,2013-04-09 10:20:00,
2013-04-09 06:25:00,46.9,45.5,29.80,SSE,149,2.0,-999.0,95,0.00,,,0.02,0,Wunderground v.1.15,2013-04-09 10:25:00,
2013-04-09 06:30:00,47.5,46.4,29.80,ESE,119,6.0,-999.0,96,0.00,,,0.02,5,Wunderground v.1.15,2013-04-09 10:30:00,
2013-04-09 06:35:00,49.5,48.7,29.80,South,173,7.0,-999.0,97,0.00,,,0.02,9,Wunderground v.1.15,2013-04-09 10:35:00,
2013-04-09 06:40:00,52.1,51.3,29.79,SSE,164,2.0,-999.0,97,0.00,,,0.02,12,Wunderground v.1.15,2013-04-09 10:40:00,
2013-04-09 06:45:00,54.5,52.2,29.80,NNW,336,1.0,-999.0,92,0.00,,,0.02,16,Wunderground v.1.15,2013-04-09 10:45:00,
2013-04-09 06:50:00,56.8,51.7,29.79,South,169,19.0,-999.0,83,0.00,,,0.02,19,Wunderground v.1.15,2013-04-09 10:50:00,
2013-04-09 06:55:00,60.6,51.1,29.78,South,170,7.0,-999.0,71,0.00,,,0.02,23,Wunderground v.1.15,2013-04-09 10:55:00,
2013-04-09 07:01:00,62.7,50.8,29.80,SW,215,6.0,-999.0,65,0.00,,,0.02,28,Wunderground v.1.15,2013-04-09 11:01:00,
2013-04-09 07:06:00,64.2,49.6,29.78,SSW,203,16.0,-999.0,59,0.00,,,0.02,32,Wunderground v.1.15,2013-04-09 11:06:00,
2013-04-09 07:11:00,64.8,50.1,29.80,ESE,103,8.0,-999.0,59,0.00,,,0.02,35,Wunderground v.1.15,2013-04-09 11:11:00,
2013-04-09 07:17:00,64.9,49.3,29.80,SW,220,2.0,-999.0,57,0.00,,,0.02,37,Wunderground v.1.15,2013-04-09 11:17:00,
2013-04-09 07:22:00,65.1,49.0,29.79,SSE,148,2.0,-999.0,56,0.00,,,0.02,42,Wunderground v.1.15,2013-04-09 11:22:00,
2013-04-09 07:27:00,65.3,49.2,29.80,North,9,0.0,-999.0,56,0.00,,,0.02,49,Wunderground v.1.15,2013-04-09 11:27:00,
2013-04-09 07:32:00,65.6,49.0,29.80,WSW,245,6.0,-999.0,55,0.00,,,0.02,56,Wunderground v.1.15,2013-04-09 11:32:00,
2013-04-09 07:37:00,65.9,49.3,29.80,WSW,245,3.0,-999.0,55,0.00,,,0.02,54,Wunderground v.1.15,2013-04-09 11:37:00,
2013-04-09 07:42:00,66.2,49.1,29.80,North,355,2.0,-999.0,54,0.00,,,0.02,69,Wunderground v.1.15,2013-04-09 11:42:00,
2013-04-09 07:47:00,66.4,49.2,29.79,SE,145,0.0,-999.0,54,0.00,,,0.02,54,Wunderground v.1.15,2013-04-09 11:47:00,
2013-04-09 07:52:00,66.6,49.4,29.79,South,185,2.0,-999.0,54,0.00,,,0.02,54,Wunderground v.1.15,2013-04-09 11:52:00,
2013-04-09 07:57:00,66.6,48.9,29.80,South,186,6.0,-999.0,53,0.00,,,0.02,98,Wunderground v.1.15,2013-04-09 11:57:00,
2013-04-09 08:02:00,66.6,48.9,29.80,West,277,7.0,-999.0,53,0.00,,,0.02,63,Wunderground v.1.15,2013-04-09 12:02:00,
2013-04-09 08:07:00,66.6,48.9,29.80,South,175,0.0,-999.0,53,0.00,,,0.02,216,Wunderground v.1.15,2013-04-09 12:07:00,
2013-04-09 08:12:00,66.7,49.0,29.80,North,5,0.0,-999.0,53,0.00,,,0.02,137,Wunderground v.1.15,2013-04-09 12:12:00,
2013-04-09 08:17:00,66.8,49.1,29.80,SSW,194,5.0,-999.0,53,0.00,,,0.02,142,Wunderground v.1.15,2013-04-09 12:17:00,
2013-04-09 08:22:00,66.9,49.2,29.80,SSW,193,11.0,-999.0,53,0.00,,,0.02,290,Wunderground v.1.15,2013-04-09 12:22:00,
2013-04-09 08:27:00,67.1,49.4,29.80,WNW,286,1.0,-999.0,53,0.00,,,0.02,304,Wunderground v.1.15,2013-04-09 12:27:00,
2013-04-09 08:32:00,67.3,49.1,29.80,West,260,6.0,-999.0,52,0.00,,,0.02,327,Wunderground v.1.15,2013-04-09 12:32:00,
2013-04-09 08:37:00,67.4,48.6,29.80,West,260,0.0,-999.0,51,0.00,,,0.02,281,Wunderground v.1.15,2013-04-09 12:37:00,
2013-04-09 08:42:00,67.5,49.8,29.80,WSW,254,1.0,-999.0,53,0.00,,,0.02,346,Wunderground v.1.15,2013-04-09 12:42:00,
2013-04-09 08:47:00,67.7,49.4,29.80,WSW,240,10.0,-999.0,52,0.00,,,0.02,374,Wunderground v.1.15,2013-04-09 12:47:00,
2013-04-09 08:53:00,67.9,48.6,29.80,West,269,0.0,-999.0,50,0.00,,,0.02,299,Wunderground v.1.15,2013-04-09 12:53:00,
2013-04-09 08:58:00,67.9,49.1,29.81,NNW,341,9.0,-999.0,51,0.00,,,0.02,411,Wunderground v.1.15,2013-04-09 12:58:00,
2013-04-09 09:03:00,68.0,49.2,29.81,NW,320,7.0,-999.0,51,0.00,,,0.02,399,Wunderground v.1.15,2013-04-09 13:03:00,
2013-04-09 09:08:00,68.4,49.0,29.82,NNE,29,3.0,-999.0,50,0.00,,,0.02,383,Wunderground v.1.15,2013-04-09 13:08:00,
2013-04-09 09:13:00,68.7,48.8,29.82,North,360,20.0,-999.0,49,0.00,,,0.02,371,Wunderground v.1.15,2013-04-09 13:13:00,
2013-04-09 09:18:00,68.5,48.6,29.83,NW,321,7.0,-999.0,49,0.00,,,0.02,422,Wunderground v.1.15,2013-04-09 13:18:00,
2013-04-09 09:23:00,68.1,49.3,29.84,ENE,59,7.0,-999.0,51,0.00,,,0.02,485,Wunderground v.1.15,2013-04-09 13:23:00,
2013-04-09 09:28:00,67.6,48.8,29.84,NNW,343,15.0,-999.0,51,0.00,,,0.02,478,Wunderground v.1.15,2013-04-09 13:28:00,
2013-04-09 09:33:00,66.9,48.2,29.84,WNW,288,13.0,-999.0,51,0.00,,,0.02,517,Wunderground v.1.15,2013-04-09 13:33:00,
2013-04-09 09:38:00,66.5,47.3,29.84,NW,325,5.0,-999.0,50,0.00,,,0.02,527,Wunderground v.1.15,2013-04-09 13:38:00,
2013-04-09 09:43:00,66.4,46.7,29.85,NNW,344,15.0,-999.0,49,0.00,,,0.02,541,Wunderground v.1.15,2013-04-09 13:43:00,
2013-04-09 09:48:00,65.9,46.2,29.85,North,360,5.0,-999.0,49,0.00,,,0.02,550,Wunderground v.1.15,2013-04-09 13:48:00,
2013-04-09 09:53:00,65.8,46.1,29.86,NW,324,9.0,-999.0,49,0.00,,,0.02,561,Wunderground v.1.15,2013-04-09 13:53:00,
2013-04-09 09:58:00,66.0,46.8,29.86,South,188,9.0,-999.0,50,0.00,,,0.02,577,Wunderground v.1.15,2013-04-09 13:58:00,
2013-04-09 10:03:00,66.2,46.5,29.86,North,355,15.0,-999.0,49,0.00,,,0.02,591,Wunderground v.1.15,2013-04-09 14:03:00,
2013-04-09 10:08:00,65.8,46.1,29.87,NW,317,7.0,-999.0,49,0.00,,,0.02,608,Wunderground v.1.15,2013-04-09 14:08:00,
2013-04-09 10:13:00,65.8,46.6,29.87,West,279,2.0,-999.0,50,0.00,,,0.02,608,Wunderground v.1.15,2013-04-09 14:13:00,
2013-04-09 10:18:00,66.2,46.5,29.87,NW,318,7.0,-999.0,49,0.00,,,0.02,621,Wunderground v.1.15,2013-04-09 14:18:00,
2013-04-09 10:23:00,66.2,47.0,29.88,WNW,296,14.0,-999.0,50,0.00,,,0.02,640,Wunderground v.1.15,2013-04-09 14:23:00,
2013-04-09 10:29:00,65.7,46.5,29.88,NNW,338,11.0,-999.0,50,0.00,,,0.02,652,Wunderground v.1.15,2013-04-09 14:29:00,
2013-04-09 10:34:00,65.6,46.5,29.89,North,5,13.0,-999.0,50,0.00,,,0.02,657,Wunderground v.1.15,2013-04-09 14:34:00,
2013-04-09 10:39:00,65.3,46.7,29.89,North,355,26.0,-999.0,51,0.00,,,0.02,677,Wunderground v.1.15,2013-04-09 14:39:00,
2013-04-09 10:44:00,64.9,46.3,29.89,NNW,332,14.0,-999.0,51,0.00,,,0.02,682,Wunderground v.1.15,2013-04-09 14:44:00,
2013-04-09 10:49:00,64.7,46.1,29.90,North,355,14.0,-999.0,51,0.00,,,0.02,705,Wunderground v.1.15,2013-04-09 14:49:00,
2013-04-09 10:54:00,64.1,46.1,29.91,North,360,12.0,-999.0,52,0.00,,,0.02,700,Wunderground v.1.15,2013-04-09 14:54:00,
2013-04-09 10:59:00,63.9,46.4,29.91,NNW,348,11.0,-999.0,53,0.00,,,0.02,712,Wunderground v.1.15,2013-04-09 14:59:00,
2013-04-09 11:04:00,63.8,45.8,29.91,ENE,57,10.0,-999.0,52,0.00,,,0.02,721,Wunderground v.1.15,2013-04-09 15:04:00,
2013-04-09 11:09:00,63.9,45.9,29.91,North,11,13.0,-999.0,52,0.00,,,0.02,744,Wunderground v.1.15,2013-04-09 15:09:00,
2013-04-09 11:14:00,63.9,45.9,29.92,NNW,346,15.0,-999.0,52,0.00,,,0.02,744,Wunderground v.1.15,2013-04-09 15:14:00,
2013-04-09 11:19:00,63.4,45.5,29.92,NNW,344,9.0,-999.0,52,0.00,,,0.02,747,Wunderground v.1.15,2013-04-09 15:19:00,
2013-04-09 11:25:00,63.2,45.3,29.92,North,9,7.0,-999.0,52,0.00,,,0.02,752,Wunderground v.1.15,2013-04-09 15:25:00,
2013-04-09 11:30:00,63.3,45.4,29.93,NNE,14,9.0,-999.0,52,0.00,,,0.02,768,Wunderground v.1.15,2013-04-09 15:30:00,
2013-04-09 11:35:00,63.5,45.0,29.93,North,350,4.0,-999.0,51,0.00,,,0.02,773,Wunderground v.1.15,2013-04-09 15:35:00,
2013-04-09 11:40:00,63.9,45.4,29.93,NNW,342,4.0,-999.0,51,0.00,,,0.02,789,Wunderground v.1.15,2013-04-09 15:40:00,
2013-04-09 11:45:00,64.1,45.6,29.93,NW,313,8.0,-999.0,51,0.00,,,0.02,793,Wunderground v.1.15,2013-04-09 15:45:00,
2013-04-09 11:50:00,64.2,45.2,29.93,NE,47,7.0,-999.0,50,0.00,,,0.02,796,Wunderground v.1.15,2013-04-09 15:50:00,
2013-04-09 11:55:00,63.9,45.4,29.92,NNE,28,17.0,-999.0,51,0.00,,,0.02,791,Wunderground v.1.15,2013-04-09 15:55:00,
2013-04-09 12:02:00,63.8,45.8,29.93,NE,40,14.0,-999.0,52,0.00,,,0.02,810,Wunderground v.1.15,2013-04-09 16:02:00,
2013-04-09 12:07:00,63.6,45.6,29.93,NNW,332,5.0,-999.0,52,0.00,,,0.02,805,Wunderground v.1.15,2013-04-09 16:07:00,
2013-04-09 12:12:00,64.4,44.8,29.93,NNW,343,13.0,-999.0,49,0.00,,,0.02,812,Wunderground v.1.15,2013-04-09 16:12:00,
2013-04-09 12:17:00,64.1,44.5,29.93,NW,306,16.0,-999.0,49,0.00,,,0.02,816,Wunderground v.1.15,2013-04-09 16:17:00,
2013-04-09 12:22:00,63.8,45.3,29.93,NNW,327,15.0,-999.0,51,0.00,,,0.02,805,Wunderground v.1.15,2013-04-09 16:22:00,
2013-04-09 12:27:00,64.0,45.5,29.93,North,351,14.0,-999.0,51,0.00,,,0.02,817,Wunderground v.1.15,2013-04-09 16:27:00,
2013-04-09 12:32:00,63.9,45.4,29.93,NNW,331,5.0,-999.0,51,0.00,,,0.02,819,Wunderground v.1.15,2013-04-09 16:32:00,
2013-04-09 12:37:00,63.9,45.4,29.93,North,5,9.0,-999.0,51,0.00,,,0.02,805,Wunderground v.1.15,2013-04-09 16:37:00,
2013-04-09 12:42:00,64.0,45.5,29.93,NW,313,5.0,-999.0,51,0.00,,,0.02,831,Wunderground v.1.15,2013-04-09 16:42:00,
2013-04-09 12:47:00,64.0,45.5,29.92,NNW,344,7.0,-999.0,51,0.00,,,0.02,647,Wunderground v.1.15,2013-04-09 16:47:00,
2013-04-09 12:52:00,64.1,45.1,29.93,NE,44,10.0,-999.0,50,0.00,,,0.02,830,Wunderground v.1.15,2013-04-09 16:52:00,
2013-04-09 12:57:00,63.9,44.9,29.93,North,5,7.0,-999.0,50,0.00,,,0.02,809,Wunderground v.1.15,2013-04-09 16:57:00,
2013-04-09 13:02:00,63.9,44.9,29.93,WNW,292,11.0,-999.0,50,0.00,,,0.02,837,Wunderground v.1.15,2013-04-09 17:02:00,
2013-04-09 13:07:00,64.2,45.2,29.93,North,355,16.0,-999.0,50,0.00,,,0.02,831,Wunderground v.1.15,2013-04-09 17:07:00,
2013-04-09 13:13:00,64.2,45.2,29.93,North,5,10.0,-999.0,50,0.00,,,0.02,830,Wunderground v.1.15,2013-04-09 17:13:00,
2013-04-09 13:18:00,63.8,45.3,29.93,NNE,13,21.0,-999.0,51,0.00,,,0.02,819,Wunderground v.1.15,2013-04-09 17:18:00,
2013-04-09 13:23:00,63.6,45.1,29.93,North,5,10.0,-999.0,51,0.00,,,0.02,805,Wunderground v.1.15,2013-04-09 17:23:00,
2013-04-09 13:28:00,63.9,44.4,29.93,North,5,6.0,-999.0,49,0.00,,,0.02,805,Wunderground v.1.15,2013-04-09 17:28:00,
2013-04-09 13:33:00,64.0,45.0,29.93,NNE,24,9.0,-999.0,50,0.00,,,0.02,807,Wunderground v.1.15,2013-04-09 17:33:00,
2013-04-09 13:38:00,64.4,45.3,29.93,NW,305,9.0,-999.0,50,0.00,,,0.02,805,Wunderground v.1.15,2013-04-09 17:38:00,
2013-04-09 13:43:00,64.8,44.6,29.93,NE,44,9.0,-999.0,48,0.00,,,0.02,779,Wunderground v.1.15,2013-04-09 17:43:00,
2013-04-09 13:48:00,64.7,44.5,29.93,North,355,9.0,-999.0,48,0.00,,,0.02,819,Wunderground v.1.15,2013-04-09 17:48:00,
2013-04-09 13:53:00,65.0,44.8,29.93,NNE,31,8.0,-999.0,48,0.00,,,0.02,805,Wunderground v.1.15,2013-04-09 17:53:00,
2013-04-09 13:58:00,64.7,44.5,29.93,NW,311,15.0,-999.0,48,0.00,,,0.02,796,Wunderground v.1.15,2013-04-09 17:58:00,
2013-04-09 14:03:00,64.7,44.5,29.93,North,9,11.0,-999.0,48,0.00,,,0.02,819,Wunderground v.1.15,2013-04-09 18:03:00,
2013-04-09 14:08:00,64.7,45.1,29.93,NNW,327,13.0,-999.0,49,0.00,,,0.02,798,Wunderground v.1.15,2013-04-09 18:08:00,
2013-04-09 14:13:00,64.9,45.3,29.93,North,11,14.0,-999.0,49,0.00,,,0.02,793,Wunderground v.1.15,2013-04-09 18:13:00,
2013-04-09 14:19:00,65.4,44.6,29.93,NW,316,12.0,-999.0,47,0.00,,,0.02,745,Wunderground v.1.15,2013-04-09 18:19:00,
2013-04-09 14:25:00,65.8,44.4,29.92,NW,324,8.0,-999.0,46,0.00,,,0.02,795,Wunderground v.1.15,2013-04-09 18:25:00,
2013-04-09 14:30:00,66.1,44.7,29.92,NNW,346,6.0,-999.0,46,0.00,,,0.02,745,Wunderground v.1.15,2013-04-09 18:30:00,
2013-04-09 14:35:00,66.4,45.0,29.92,NNE,30,10.0,-999.0,46,0.00,,,0.02,823,Wunderground v.1.15,2013-04-09 18:35:00,
2013-04-09 14:40:00,66.8,44.8,29.92,NNW,329,10.0,-999.0,45,0.00,,,0.02,668,Wunderground v.1.15,2013-04-09 18:40:00,
2013-04-09 14:45:00,66.9,44.3,29.92,NNE,28,7.0,-999.0,44,0.00,,,0.02,693,Wunderground v.1.15,2013-04-09 18:45:00,
2013-04-09 14:50:00,66.8,44.2,29.92,NNW,337,13.0,-999.0,44,0.00,,,0.02,802,Wunderground v.1.15,2013-04-09 18:50:00,
2013-04-09 14:55:00,67.0,44.4,29.91,NNE,32,6.0,-999.0,44,0.00,,,0.02,684,Wunderground v.1.15,2013-04-09 18:55:00,
2013-04-09 15:00:00,67.0,44.4,29.92,NW,322,6.0,-999.0,44,0.00,,,0.02,656,Wunderground v.1.15,2013-04-09 19:00:00,
2013-04-09 15:05:00,67.3,44.0,29.92,North,5,13.0,-999.0,43,0.00,,,0.02,613,Wunderground v.1.15,2013-04-09 19:05:00,
2013-04-09 15:10:00,67.0,43.8,29.92,NNE,24,8.0,-999.0,43,0.00,,,0.02,480,Wunderground v.1.15,2013-04-09 19:10:00,
2013-04-09 15:15:00,66.9,43.7,29.91,North,360,4.0,-999.0,43,0.00,,,0.02,476,Wunderground v.1.15,2013-04-09 19:15:00,
2013-04-09 15:20:00,66.8,43.6,29.91,NNW,346,6.0,-999.0,43,0.00,,,0.02,548,Wunderground v.1.15,2013-04-09 19:20:00,
2013-04-09 15:25:00,66.7,43.5,29.91,North,355,9.0,-999.0,43,0.00,,,0.02,559,Wunderground v.1.15,2013-04-09 19:25:00,
2013-04-09 15:30:00,67.0,43.8,29.91,NNE,25,9.0,-999.0,43,0.00,,,0.02,564,Wunderground v.1.15,2013-04-09 19:30:00,
2013-04-09 15:35:00,66.9,43.7,29.91,North,355,13.0,-999.0,43,0.00,,,0.02,524,Wunderground v.1.15,2013-04-09 19:35:00,
2013-04-09 15:40:00,67.3,44.0,29.91,North,355,10.0,-999.0,43,0.00,,,0.02,703,Wunderground v.1.15,2013-04-09 19:40:00,
2013-04-09 15:45:00,67.4,44.7,29.91,NE,35,10.0,-999.0,44,0.00,,,0.02,596,Wunderground v.1.15,2013-04-09 19:45:00,
2013-04-09 15:50:00,67.8,43.9,29.90,North,355,6.0,-999.0,42,0.00,,,0.02,563,Wunderground v.1.15,2013-04-09 19:50:00,
2013-04-09 15:55:00,67.9,44.0,29.90,North,355,10.0,-999.0,42,0.00,,,0.02,536,Wunderground v.1.15,2013-04-09 19:55:00,
2013-04-09 16:01:00,67.9,44.0,29.90,NNE,26,3.0,-999.0,42,0.00,,,0.02,606,Wunderground v.1.15,2013-04-09 20:01:00,
2013-04-09 16:06:00,68.1,44.1,29.89,North,350,8.0,-999.0,42,0.00,,,0.02,603,Wunderground v.1.15,2013-04-09 20:06:00,
2013-04-09 16:12:00,68.5,43.9,29.89,NNW,339,14.0,-999.0,41,0.00,,,0.02,575,Wunderground v.1.15,2013-04-09 20:12:00,
2013-04-09 16:17:00,68.7,43.4,29.89,NNW,344,7.0,-999.0,40,0.00,,,0.02,559,Wunderground v.1.15,2013-04-09 20:17:00,
2013-04-09 16:22:00,68.8,43.5,29.90,NNE,17,8.0,-999.0,40,0.00,,,0.02,541,Wunderground v.1.15,2013-04-09 20:22:00,
2013-04-09 16:27:00,68.6,43.9,29.89,NNW,333,10.0,-999.0,41,0.00,,,0.02,527,Wunderground v.1.15,2013-04-09 20:27:00,
2013-04-09 16:32:00,68.7,43.4,29.89,North,355,10.0,-999.0,40,0.00,,,0.02,512,Wunderground v.1.15,2013-04-09 20:32:00,
2013-04-09 16:37:00,68.8,42.8,29.89,NNW,339,15.0,-999.0,39,0.00,,,0.02,496,Wunderground v.1.15,2013-04-09 20:37:00,
2013-04-09 16:42:00,68.8,43.5,29.90,NNE,21,9.0,-999.0,40,0.00,,,0.02,478,Wunderground v.1.15,2013-04-09 20:42:00,
2013-04-09 16:47:00,68.8,42.8,29.90,NNE,12,9.0,-999.0,39,0.00,,,0.02,390,Wunderground v.1.15,2013-04-09 20:47:00,
2013-04-09 16:52:00,68.7,42.7,29.90,NNW,336,7.0,-999.0,39,0.00,,,0.02,462,Wunderground v.1.15,2013-04-09 20:52:00,
2013-04-09 16:57:00,68.8,42.8,29.90,NE,55,6.0,-999.0,39,0.00,,,0.02,425,Wunderground v.1.15,2013-04-09 20:57:00,
2013-04-09 17:02:00,68.9,43.6,29.90,NW,319,2.0,-999.0,40,0.00,,,0.02,471,Wunderground v.1.15,2013-04-09 21:02:00,
2013-04-09 17:07:00,69.4,42.7,29.90,NNE,21,9.0,-999.0,38,0.00,,,0.02,432,Wunderground v.1.15,2013-04-09 21:07:00,
2013-04-09 17:12:00,69.4,42.7,29.90,North,5,6.0,-999.0,38,0.00,,,0.02,432,Wunderground v.1.15,2013-04-09 21:12:00,
2013-04-09 17:17:00,69.6,42.2,29.90,NNW,331,5.0,-999.0,37,0.00,,,0.02,403,Wunderground v.1.15,2013-04-09 21:17:00,
2013-04-09 17:23:00,69.7,42.3,29.90,North,355,7.0,-999.0,37,0.00,,,0.02,197,Wunderground v.1.15,2013-04-09 21:23:00,
2013-04-09 17:28:00,69.7,42.3,29.90,North,360,7.0,-999.0,37,0.00,,,0.02,338,Wunderground v.1.15,2013-04-09 21:28:00,
2013-04-09 17:33:00,69.6,42.2,29.90,North,360,2.0,-999.0,37,0.00,,,0.02,343,Wunderground v.1.15,2013-04-09 21:33:00,
2013-04-09 17:38:00,69.7,41.5,29.90,North,350,7.0,-999.0,36,0.00,,,0.02,292,Wunderground v.1.15,2013-04-09 21:38:00,
2013-04-09 17:43:00,69.5,41.4,29.89,NNE,12,5.0,-999.0,36,0.00,,,0.02,225,Wunderground v.1.15,2013-04-09 21:43:00,
2013-04-09 17:48:00,69.3,42.6,29.90,NNE,18,6.0,-999.0,38,0.00,,,0.02,248,Wunderground v.1.15,2013-04-09 21:48:00,
2013-04-09 17:53:00,69.0,41.6,29.90,North,11,9.0,-999.0,37,0.00,,,0.02,236,Wunderground v.1.15,2013-04-09 21:53:00,
2013-04-09 17:58:00,68.9,41.5,29.90,North,11,4.0,-999.0,37,0.00,,,0.02,211,Wunderground v.1.15,2013-04-09 21:58:00,
2013-04-09 18:03:00,68.9,41.5,29.90,North,355,6.0,-999.0,37,0.00,,,0.02,155,Wunderground v.1.15,2013-04-09 22:03:00,
2013-04-09 18:08:00,68.9,41.5,29.90,North,5,8.0,-999.0,37,0.00,,,0.02,146,Wunderground v.1.15,2013-04-09 22:08:00,
2013-04-09 18:13:00,68.6,42.0,29.90,North,5,4.0,-999.0,38,0.00,,,0.02,79,Wunderground v.1.15,2013-04-09 22:13:00,
2013-04-09 18:18:00,68.3,41.7,29.90,NNE,13,5.0,-999.0,38,0.00,,,0.02,58,Wunderground v.1.15,2013-04-09 22:18:00,
2013-04-09 18:23:00,68.1,41.5,29.90,NNE,13,2.0,-999.0,38,0.00,,,0.02,70,Wunderground v.1.15,2013-04-09 22:23:00,
2013-04-09 18:28:00,67.9,42.0,29.90,NNE,15,4.0,-999.0,39,0.00,,,0.02,79,Wunderground v.1.15,2013-04-09 22:28:00,
2013-04-09 18:33:00,67.7,41.8,29.90,NNE,15,4.0,-999.0,39,0.00,,,0.02,76,Wunderground v.1.15,2013-04-09 22:33:00,
2013-04-09 18:38:00,67.6,41.7,29.90,NNE,15,5.0,-999.0,39,0.00,,,0.02,58,Wunderground v.1.15,2013-04-09 22:38:00,
2013-04-09 18:43:00,67.4,41.6,29.90,NNE,15,2.0,-999.0,39,0.00,,,0.02,60,Wunderground v.1.15,2013-04-09 22:43:00,
2013-04-09 18:48:00,67.2,42.0,29.90,NNE,15,0.0,-999.0,40,0.00,,,0.02,67,Wunderground v.1.15,2013-04-09 22:48:00,
2013-04-09 18:53:00,67.1,42.0,29.90,NNE,15,0.0,-999.0,40,0.00,,,0.02,62,Wunderground v.1.15,2013-04-09 22:53:00,
2013-04-09 18:58:00,67.0,42.5,29.90,NNE,15,0.0,-999.0,41,0.00,,,0.02,42,Wunderground v.1.15,2013-04-09 22:58:00,
2013-04-09 19:03:00,66.8,41.7,29.90,NNE,15,4.0,-999.0,40,0.00,,,0.02,30,Wunderground v.1.15,2013-04-09 23:03:00,
2013-04-09 19:08:00,66.6,42.8,29.90,NNE,15,0.0,-999.0,42,0.00,,,0.02,25,Wunderground v.1.15,2013-04-09 23:08:00,
2013-04-09 19:13:00,66.5,44.5,29.91,NNE,15,0.0,-999.0,45,0.00,,,0.02,19,Wunderground v.1.15,2013-04-09 23:13:00,
2013-04-09 19:18:00,66.1,45.3,29.91,NNE,15,0.0,-999.0,47,0.00,,,0.02,12,Wunderground v.1.15,2013-04-09 23:18:00,
2013-04-09 19:23:00,65.6,43.7,29.91,NNE,15,0.0,-999.0,45,0.00,,,0.02,5,Wunderground v.1.15,2013-04-09 23:23:00,
2013-04-09 19:28:00,64.9,44.7,29.91,NNE,15,0.0,-999.0,48,0.00,,,0.02,0,Wunderground v.1.15,2013-04-09 23:28:00,
2013-04-09 19:33:00,64.1,45.1,29.91,NNE,15,2.0,-999.0,50,0.00,,,0.02,0,Wunderground v.1.15,2013-04-09 23:33:00,
2013-04-09 19:38:00,63.1,44.7,29.91,NNE,15,0.0,-999.0,51,0.00,,,0.02,0,Wunderground v.1.15,2013-04-09 23:38:00,
2013-04-09 19:43:00,62.3,43.9,29.91,NNE,15,1.0,-999.0,51,0.00,,,0.02,0,Wunderground v.1.15,2013-04-09 23:43:00,
2013-04-09 19:48:00,61.7,45.4,29.91,NNE,15,4.0,-999.0,55,0.00,,,0.02,0,Wunderground v.1.15,2013-04-09 23:48:00,
2013-04-09 19:53:00,61.0,43.7,29.91,NNE,15,3.0,-999.0,53,0.00,,,0.02,0,Wunderground v.1.15,2013-04-09 23:53:00,
2013-04-09 19:58:00,60.8,44.0,29.91,NNE,15,0.0,-999.0,54,0.00,,,0.02,0,Wunderground v.1.15,2013-04-09 23:58:00,
2013-04-09 20:03:00,60.5,44.2,29.91,NNE,15,0.0,-999.0,55,0.00,,,0.02,0,Wunderground v.1.15,2013-04-10 00:03:00,
2013-04-09 20:08:00,60.3,44.1,29.92,SSE,151,7.0,-999.0,55,0.00,,,0.02,0,Wunderground v.1.15,2013-04-10 00:08:00,
2013-04-09 20:13:00,60.1,43.9,29.93,SSE,153,10.0,-999.0,55,0.00,,,0.02,0,Wunderground v.1.15,2013-04-10 00:13:00,
2013-04-09 20:18:00,60.0,44.3,29.93,SSE,154,2.0,-999.0,56,0.00,,,0.02,0,Wunderground v.1.15,2013-04-10 00:18:00,
2013-04-09 20:24:00,59.8,44.1,29.93,SSE,154,6.0,-999.0,56,0.00,,,0.02,0,Wunderground v.1.15,2013-04-10 00:24:00,
2013-04-09 20:28:00,59.6,44.3,29.93,SSE,154,1.0,-999.0,57,0.00,,,0.02,0,Wunderground v.1.15,2013-04-10 00:28:00,
2013-04-09 20:33:00,59.5,43.8,29.93,SSE,154,5.0,-999.0,56,0.00,,,0.02,0,Wunderground v.1.15,2013-04-10 00:33:00,
2013-04-09 20:39:00,59.4,44.2,29.92,SSE,154,5.0,-999.0,57,0.00,,,0.02,0,Wunderground v.1.15,2013-04-10 00:39:00,
2013-04-09 20:44:00,59.2,44.0,29.92,SSE,154,4.0,-999.0,57,0.00,,,0.02,0,Wunderground v.1.15,2013-04-10 00:44:00,
2013-04-09 20:49:00,59.0,44.2,29.92,SSE,154,4.0,-999.0,58,0.00,,,0.02,0,Wunderground v.1.15,2013-04-10 00:49:00,
2013-04-09 20:54:00,58.8,44.0,29.92,SSE,154,5.0,-999.0,58,0.00,,,0.02,0,Wunderground v.1.15,2013-04-10 00:54:00,
2013-04-09 20:59:00,58.6,44.3,29.92,SSE,153,0.0,-999.0,59,0.00,,,0.02,0,Wunderground v.1.15,2013-04-10 00:59:00,
2013-04-09 21:04:00,58.5,44.2,29.93,SSE,153,0.0,-999.0,59,0.00,,,0.02,0,Wunderground v.1.15,2013-04-10 01:04:00,
2013-04-09 21:09:00,58.4,44.6,29.92,SSE,153,0.0,-999.0,60,0.00,,,0.02,0,Wunderground v.1.15,2013-04-10 01:09:00,
2013-04-09 21:14:00,58.2,44.4,29.92,SSE,153,0.0,-999.0,60,0.00,,,0.02,0,Wunderground v.1.15,2013-04-10 01:14:00,
2013-04-09 21:19:00,58.0,44.6,29.92,SSE,153,0.0,-999.0,61,0.00,,,0.02,0,Wunderground v.1.15,2013-04-10 01:19:00,
2013-04-09 21:24:00,57.8,44.4,29.92,SSE,153,0.0,-999.0,61,0.00,,,0.02,0,Wunderground v.1.15,2013-04-10 01:24:00,
2013-04-09 21:29:00,57.5,44.6,29.92,SSE,153,0.0,-999.0,62,0.00,,,0.02,0,Wunderground v.1.15,2013-04-10 01:29:00,
2013-04-09 21:34:00,57.2,44.3,29.92,SSE,153,0.0,-999.0,62,0.00,,,0.02,0,Wunderground v.1.15,2013-04-10 01:34:00,
2013-04-09 21:39:00,57.0,44.1,29.93,SSE,153,0.0,-999.0,62,0.00,,,0.02,0,Wunderground v.1.15,2013-04-10 01:39:00,
2013-04-09 21:44:00,56.8,43.9,29.92,SSE,153,5.0,-999.0,62,0.00,,,0.02,0,Wunderground v.1.15,2013-04-10 01:44:00,
2013-04-09 21:49:00,56.6,43.7,29.92,SSE,153,1.0,-999.0,62,0.00,,,0.02,0,Wunderground v.1.15,2013-04-10 01:49:00,
2013-04-09 21:54:00,56.4,43.5,29.92,SSE,155,4.0,-999.0,62,0.00,,,0.02,0,Wunderground v.1.15,2013-04-10 01:54:00,
2013-04-09 21:59:00,56.1,43.3,29.92,SSE,155,0.0,-999.0,62,0.00,,,0.02,0,Wunderground v.1.15,2013-04-10 01:59:00,
2013-04-09 22:04:00,55.9,43.1,29.92,SSE,155,1.0,-999.0,62,0.00,,,0.02,0,Wunderground v.1.15,2013-04-10 02:04:00,
2013-04-09 22:09:00,55.7,43.3,29.91,SSE,155,0.0,-999.0,63,0.00,,,0.02,0,Wunderground v.1.15,2013-04-10 02:09:00,
2013-04-09 22:14:00,55.5,43.1,29.91,SSE,155,2.0,-999.0,63,0.00,,,0.02,0,Wunderground v.1.15,2013-04-10 02:14:00,
2013-04-09 22:19:00,55.3,43.3,29.91,SSE,155,0.0,-999.0,64,0.00,,,0.02,0,Wunderground v.1.15,2013-04-10 02:19:00,
2013-04-09 22:24:00,55.1,43.1,29.90,SSE,155,0.0,-999.0,64,0.00,,,0.02,0,Wunderground v.1.15,2013-04-10 02:24:00,
2013-04-09 22:29:00,54.9,42.9,29.90,SSE,155,0.0,-999.0,64,0.00,,,0.02,0,Wunderground v.1.15,2013-04-10 02:29:00,
2013-04-09 22:34:00,54.8,43.3,29.90,SSE,155,0.0,-999.0,65,0.00,,,0.02,0,Wunderground v.1.15,2013-04-10 02:34:00,
2013-04-09 22:39:00,54.6,43.5,29.90,SSE,155,0.0,-999.0,66,0.00,,,0.02,0,Wunderground v.1.15,2013-04-10 02:39:00,
2013-04-09 22:44:00,54.4,43.3,29.89,SSE,155,0.0,-999.0,66,0.00,,,0.02,0,Wunderground v.1.15,2013-04-10 02:44:00,
2013-04-09 22:49:00,54.2,43.1,29.89,SSE,155,0.0,-999.0,66,0.00,,,0.02,0,Wunderground v.1.15,2013-04-10 02:49:00,
2013-04-09 22:54:00,54.1,43.0,29.89,SSE,155,0.0,-999.0,66,0.00,,,0.02,0,Wunderground v.1.15,2013-04-10 02:54:00,
2013-04-09 22:59:00,53.9,43.2,29.89,SSE,155,0.0,-999.0,67,0.00,,,0.02,0,Wunderground v.1.15,2013-04-10 02:59:00,
2013-04-09 23:04:00,53.7,43.0,29.88,SSE,155,0.0,-999.0,67,0.00,,,0.02,0,Wunderground v.1.15,2013-04-10 03:04:00,
2013-04-09 23:09:00,53.5,43.2,29.88,SSE,155,0.0,-999.0,68,0.00,,,0.02,0,Wunderground v.1.15,2013-04-10 03:09:00,
2013-04-09 23:14:00,53.3,43.0,29.87,SSE,155,0.0,-999.0,68,0.00,,,0.02,0,Wunderground v.1.15,2013-04-10 03:14:00,
2013-04-09 23:19:00,53.2,43.3,29.87,SSE,155,0.0,-999.0,69,0.00,,,0.02,0,Wunderground v.1.15,2013-04-10 03:19:00,
2013-04-09 23:24:00,53.0,43.1,29.87,SSE,155,0.0,-999.0,69,0.00,,,0.02,0,Wunderground v.1.15,2013-04-10 03:24:00,
2013-04-09 23:29:00,52.9,43.0,29.86,SSE,155,0.0,-999.0,69,0.00,,,0.02,0,Wunderground v.1.15,2013-04-10 03:29:00,
2013-04-09 23:34:00,52.8,43.3,29.86,SSE,155,0.0,-999.0,70,0.00,,,0.02,0,Wunderground v.1.15,2013-04-10 03:34:00,
2013-04-09 23:39:00,52.7,43.6,29.86,SSE,155,0.0,-999.0,71,0.00,,,0.02,0,Wunderground v.1.15,2013-04-10 03:39:00,
2013-04-09 23:44:00,52.6,43.5,29.86,SSE,155,0.0,-999.0,71,0.00,,,0.02,0,Wunderground v.1.15,2013-04-10 03:44:00,
2013-04-09 23:49:00,52.6,43.5,29.87,SSE,155,0.0,-999.0,71,0.00,,,0.02,0,Wunderground v.1.15,2013-04-10 03:49:00,
2013-04-09 23:54:00,52.6,42.7,29.87,SSE,155,2.0,-999.0,69,0.00,,,0.02,0,Wunderground v.1.15,2013-04-10 03:54:00,
2013-04-09 23:59:00,52.8,42.9,29.86,SSE,155,2.0,-999.0,69,0.00,,,0.02,0,Wunderground v.1.15,2013-04-10 03:59:00,